Simultaneous Nadir Overpasses (SNOs) Predictions

Prediction of SNOs between LANDSAT-8 and NOAA-19 Satellite Orbit:

Table of predicted SNOs for the next 14.0 days since TLE Epoch: 11/12/2022
Index Date (LANDSAT-8) Time (LANDSAT-8) Lat,Lon (LANDSAT-8) SZA (LANDSAT-8 ) Date (NOAA-19) Time (NOAA-19) Lat,Lon (NOAA-19) SZA (NOAA-19 ) Distance(km) Time Diff (sec)
1 11/13/2022 04:20:33 80.90, 151.63 100.92 11/13/2022 04:20:53 80.89, 151.45 100.90 3.35 20
2 11/15/2022 09:54:16 -80.89,-111.93 78.54 11/15/2022 09:53:38 -80.89,-112.02 78.56 1.68 38
3 11/15/2022 10:43:42 80.89, 55.78 101.49 11/15/2022 10:44:39 80.88, 55.94 101.52 2.96 57
4 11/17/2022 16:17:25 -80.87, 152.14 78.01 11/17/2022 16:17:25 -80.89, 152.22 77.99 2.15 0
5 11/19/2022 21:51:06 80.89,-111.14 102.53 11/19/2022 21:50:15 80.89,-111.15 102.51 0.74 51
6 11/19/2022 22:40:33 -80.88, 56.46 77.48 11/19/2022 22:41:12 -80.89, 56.41 77.46 1.06 39
7 11/22/2022 04:14:14 80.88, 153.06 103.01 11/22/2022 04:14:01 80.89, 153.12 103.02 1.25 13
8 11/24/2022 09:47:55 -80.90,-110.13 76.51 11/24/2022 09:46:47 -80.89,-110.13 76.55 1.21 68



Historial Predications of SNOs between LANDSAT-8 and NOAA-19
